Home > Weather > Cheyenne > Past weeks

Flag for USA Past Weather in Cheyenne, Wyoming, USA — Yesterday and Last 2 Weeks

Now
58 °F

Clear.


Feels Like: 56 °F
Forecast: 52 / 82 °F
Wind: 8 mph from West

Location: Cheyenne Airport

Current Time: Jun 26, 2016 at 2:11:41 AM

Latest Report: Jun 26, 2016 at 12:53 AM


Visibility: 10 mi

Pressure: 30.03 "Hg (24.09 "Hg at 1855m altitude)

Humidity: 62%

Dew Point: 45 °F

Location of CheyenneLocation

Past Weather in Cheyenne — Graph

°F

Cheyenne Temperature Yesterday

Maximum temperature yesterday: 82 °F (at 4:53 PM)
Minimum temperature yesterday: 58 °F (at 5:53 AM)
Average temperature yesterday: 69 °F

High & Low Weather Summary for the Past Weeks

 TemperatureHumidityPressure
High94 °F (Jun 21, 11:53 AM)96% (Jun 13, 4:53 AM)30.40 "Hg (Jun 13, 4:53 AM)
Low50 °F (Jun 15, 5:53 AM)11% (Jun 19, 11:53 AM)29.65 "Hg (Jun 16, 12:53 AM)
Average69 °F46%29.90 "Hg
* Reported Jun 11 12:53 AM — Jun 26 12:53 AM, Cheyenne, Weather by CustomWeather, © 2016

Note: Actual official high and low records may vary slightly from our data, if they occured in-between our weather recording intervals... More about our weather records

Advertising

Cheyenne Weather History for the Previous 24 Hours

Scroll right to see more
 ConditionsComfort  
Time TempWeatherWind HumidityBarometerVisibility
12:53 AM
Sun, Jun 26
58 °FClear.8 mph62%30.03 "Hg10 mi
11:53 PM
Sat, Jun 25
60 °FPassing clouds.7 mph49%30.03 "Hg10 mi
10:53 PM61 °FPassing clouds.7 mph62%30.03 "Hg10 mi
9:53 PM62 °FOvercast.No wind67%30.02 "Hg10 mi
8:53 PM64 °FThunderstorms. Mostly cloudy.3 mph43%30.01 "Hg5 mi
7:53 PM71 °FThunderstorms. Overcast.3 mph23%29.98 "Hg10 mi
6:53 PM74 °FPartly sunny.12 mph22%29.94 "Hg10 mi
5:53 PM79 °FScattered clouds.12 mph23%29.91 "Hg10 mi
4:53 PM82 °FSunny.13 mph23%29.89 "Hg10 mi
3:53 PM80 °FPartly sunny.10 mph20%29.87 "Hg10 mi
2:53 PM77 °FPartly sunny.10 mph24%29.88 "Hg10 mi
1:53 PM78 °FScattered clouds.16 mph19%29.87 "Hg10 mi
12:53 PM80 °FSunny.16 mph21%29.87 "Hg10 mi
11:53 AM78 °FSunny.15 mph23%29.87 "Hg10 mi
10:53 AM73 °FSunny.10 mph34%29.89 "Hg10 mi
9:53 AM68 °FSunny.13 mph49%29.91 "Hg10 mi
8:53 AM65 °FSunny.10 mph51%29.91 "Hg10 mi
7:53 AM62 °FSunny.6 mph54%29.89 "Hg10 mi
6:53 AM59 °FSunny.6 mph54%29.88 "Hg10 mi
5:53 AM58 °FClear.9 mph54%29.85 "Hg10 mi
4:53 AM61 °FClear.14 mph50%29.83 "Hg10 mi
3:53 AM68 °FPassing clouds.10 mph39%29.78 "Hg10 mi
2:53 AM68 °FClear.7 mph38%29.78 "Hg10 mi
Weather by CustomWeather, © 2016

See weather overviewHow to use our weather pages